Flag for China Weather past 2 weeks in Shantou, Guangdong, China

Now
81 °F

Passing clouds.


Feels Like: 88 °F
Forecast: 76 / 94 °F
Wind: 1 mph from North

Location: Shantou Airport

Current Time: Sep 2, 2014 at 3:14:55 AM

Latest Report: Sep 2, 2014 at 2:00 AM


Visibility: N/A

Pressure: 29.86 "Hg

Humidity: 94%

Dew point: 79 °F

Location of ShantouLocation

Historic Weather in Shantou — Graph

°F

Shantou temperature yesterday

Maximum temperature yesterday: 97 °F (at 2:00 PM)
Minimum temperature yesterday: 79 °F (at 6:00 AM)
Average temperature yesterday: 86 °F

Past Weeks' High & Low Weather Summary

 TemperatureHumidityPressure
High97 °F (Sep 1, 2:00 PM)100% (Aug 18, 7:00 AM)29.98 "Hg (Aug 18, 7:00 AM)
Low73 °F (Aug 19, 2:00 PM)47% (Sep 1, 2:00 PM)29.71 "Hg (Aug 18, 3:00 PM)
Average84 °F79%29.85 "Hg
* Reported Aug 18 2:00 AM — Sep 2 2:00 AM, Shantou, Weather by CustomWeather, © 2014

Note: Actual official high and low records may vary slightly from our data, if they occured in-between our weather recording intervals... More about our weather records

Advertising

Shantou weather history for previous 24 hours

 ConditionsComfort  
Time TempWeatherWind HumidityBarometerVisibility
2:00 AM
Sep 2
81 °FPassing clouds.1 mph94%29.86 "HgN/A
1:00 AM82 °FClear.1 mph89%29.89 "Hg10 mi
12:00 AM84 °FClear.1 mph84%29.89 "Hg10 mi
11:00 PM
Sep 1
84 °FClear.3 mph84%29.89 "Hg10 mi
10:00 PM84 °FPassing clouds.3 mph84%29.89 "HgN/A
9:00 PM84 °FClear.3 mph84%29.89 "Hg10 mi
8:00 PM86 °FPassing clouds.6 mph70%29.86 "HgN/A
7:00 PM88 °FClear.10 mph66%29.83 "Hg10 mi
6:00 PM88 °FSunny.10 mph66%29.80 "Hg10 mi
5:00 PM91 °FPassing clouds.10 mph63%29.80 "HgN/A
4:00 PM93 °FPassing clouds.10 mph59%29.80 "HgN/A
3:00 PM93 °FScattered clouds.6 mph56%29.80 "HgN/A
2:00 PM97 °FScattered clouds.6 mph47%29.80 "HgN/A
1:00 PM93 °FScattered clouds.3 mph56%29.83 "HgN/A
12:00 PM91 °FScattered clouds.3 mph59%29.83 "HgN/A
11:00 AM91 °FScattered clouds.3 mph63%29.86 "HgN/A
10:00 AM88 °FScattered clouds.3 mph70%29.86 "HgN/A
9:00 AM86 °FScattered clouds.3 mph75%29.86 "HgN/A
8:00 AM84 °FPassing clouds.3 mph84%29.86 "Hg4 mi
7:00 AM81 °FFog.1 mph94%29.86 "Hg3 mi
6:00 AM79 °FFog.No wind100%29.86 "Hg2 mi
5:00 AM81 °FFog.1 mph94%29.86 "Hg3 mi
4:00 AM81 °FPassing clouds.1 mph94%29.86 "Hg4 mi
3:00 AM82 °FPassing clouds.1 mph89%29.86 "HgN/A
Weather by CustomWeather, © 2014

See weather overviewHow to use our weather pages